Weather History for KVKY - February, 2014

Change the Weather History Date:

Wednesday, February 12, 2014

  Actual Average Record
Temperature  
Mean Temperature 55 °F -  
Max Temperature 64 °F - - ()
Min Temperature 46 °F - - ()
Degree Days  
Heating Degree Days 10    
Growing Degree Days 5 (Base 50)    
Moisture  
Dew Point 51 °F    
Average Humidity 91    
Maximum Humidity 100    
Minimum Humidity 82    
Precipitation  
Precipitation 0.00 in - - ()
Sea Level Pressure  
Sea Level Pressure 29.86 in    
Wind  
Wind Speed 16 mph (NNE)    
Max Wind Speed 37 mph    
Max Gust Speed 45 mph    
Visibility 9 miles    
Events      
Averages and records for this station are not official NWS values.
T = Trace of Precipitation, MM = Missing Value Source: NWS Daily Summary

Daily Weather History Graph

Daily Weather History Graph

Search for Another Location

Airport or City:

Trip Planner

Search our weather history database for the weather conditions in past years. The results will help you decide how hot, cold, wet, or windy it might be!

Date:

Astronomy

Feb. 12, 2014 Rise Set
Actual Time 6:35 AM CST 5:41 PM CST
Civil Twilight 6:10 AM CST 6:05 PM CST
Nautical Twilight 5:42 AM CST 6:33 PM CST
Astronomical Twilight 5:15 AM CST 7:01 PM CST
Moon 3:57 PM CST (2/12) 4:47 AM CST (2/12)
Length of Visible Light 11h 54m
Length of Day
11h 05m
Waxing Gibbous, 95% of the Moon is Illuminated
Feb 12
Waxing Gibbous
Feb 14
Full
Feb 22
Last Quarter
Mar 1
New
Mar 8
First Quarter

Hourly Weather History & Observations

Time (CST) Temp. Windchill Dew Point Humidity Pressure Visibility Wind Dir Wind Speed Gust Speed Precip Events Conditions
12:15 AM 64.4 °F - 62.6 °F 94% 29.90 in 10.0 mi South 8.1 mph - N/A   Overcast
12:35 AM 64.4 °F - 62.6 °F 94% 29.89 in 10.0 mi Calm Calm - N/A   Overcast
12:55 AM 62.6 °F - 60.8 °F 94% 29.91 in 10.0 mi NNW 12.7 mph 20.7 mph N/A   Overcast
1:15 AM 59.0 °F - 57.2 °F 94% 29.90 in 10.0 mi NE 15.0 mph 24.2 mph N/A   Overcast
1:35 AM 59.0 °F - 57.2 °F 94% 29.88 in 10.0 mi ENE 16.1 mph - N/A   Overcast
1:55 AM 59.0 °F - 57.2 °F 94% 29.87 in 10.0 mi East 12.7 mph 18.4 mph N/A   Overcast
2:15 AM 59.0 °F - 57.2 °F 94% 29.86 in 10.0 mi East 17.3 mph - N/A   Overcast
2:35 AM 60.8 °F - 59.0 °F 94% 29.86 in 10.0 mi ENE 11.5 mph - N/A   Overcast
2:55 AM 60.8 °F - 59.0 °F 94% 29.85 in 10.0 mi ENE 17.3 mph - N/A   Overcast
3:15 AM 60.8 °F - 60.8 °F 100% 29.83 in 10.0 mi East 10.4 mph 16.1 mph N/A   Overcast
3:35 AM 62.6 °F - 60.8 °F 94% 29.84 in 10.0 mi East 6.9 mph - N/A   Overcast
3:55 AM 60.8 °F - 60.8 °F 100% 29.83 in 10.0 mi ENE 25.3 mph - N/A   Overcast
4:15 AM 53.6 °F - 53.6 °F 100% 29.85 in 3.0 mi NE 31.1 mph 39.1 mph N/A   Overcast
4:35 AM 53.6 °F - 51.8 °F 94% 29.87 in 6.0 mi NE 33.4 mph 40.3 mph N/A   Overcast
4:55 AM 53.6 °F - 51.8 °F 94% 29.88 in 10.0 mi ENE 36.8 mph 44.9 mph N/A   Overcast
5:15 AM 55.4 °F - 53.6 °F 94% 29.90 in 9.0 mi East 26.5 mph 35.7 mph N/A   Overcast
5:35 AM 57.2 °F - 53.6 °F 88% 29.89 in 5.0 mi East 23.0 mph - N/A   Overcast
5:55 AM 57.2 °F - 55.4 °F 94% 29.90 in 10.0 mi ESE 18.4 mph - N/A   Mostly Cloudy
6:15 AM 57.2 °F - 55.4 °F 94% 29.90 in 10.0 mi ESE 16.1 mph 23.0 mph N/A   Overcast
6:35 AM 57.2 °F - 55.4 °F 94% 29.89 in 10.0 mi East 16.1 mph 21.9 mph N/A   Overcast
6:55 AM 59.0 °F - 57.2 °F 94% 29.88 in 6.0 mi East 12.7 mph - N/A   Overcast
7:15 AM 59.0 °F - 57.2 °F 94% 29.88 in 10.0 mi East 10.4 mph - N/A   Overcast
7:35 AM 60.8 °F - 57.2 °F 88% 29.89 in 10.0 mi NE 10.4 mph - N/A   Overcast
7:55 AM 57.2 °F - 55.4 °F 94% 29.90 in 10.0 mi North 12.7 mph - N/A   Overcast
8:15 AM 57.2 °F - 55.4 °F 94% 29.87 in 10.0 mi East 3.5 mph - N/A   Mostly Cloudy
8:35 AM 57.2 °F - 55.4 °F 94% 29.91 in 8.0 mi NNW 18.4 mph - N/A   Overcast
8:55 AM 55.4 °F - 53.6 °F 94% 29.90 in 10.0 mi NNW 12.7 mph - N/A   Overcast
9:15 AM 53.6 °F - 51.8 °F 94% 29.88 in 8.0 mi North 12.7 mph - N/A   Overcast
9:35 AM 55.4 °F - 51.8 °F 88% 29.88 in 10.0 mi North 16.1 mph - N/A   Overcast
9:55 AM 55.4 °F - 51.8 °F 88% 29.88 in 10.0 mi North 19.6 mph - N/A   Overcast
10:15 AM 53.6 °F - 51.8 °F 94% 29.88 in 10.0 mi North 15.0 mph - N/A   Overcast
10:35 AM 53.6 °F - 51.8 °F 94% 29.87 in 10.0 mi North 12.7 mph - N/A   Overcast
10:55 AM 53.6 °F - 51.8 °F 94% 29.87 in 10.0 mi North 13.8 mph - N/A   Overcast
11:15 AM 53.6 °F - 51.8 °F 94% 29.87 in 10.0 mi North 16.1 mph - N/A   Overcast
11:35 AM 53.6 °F - 51.8 °F 94% 29.87 in 10.0 mi NNW 18.4 mph - N/A   Overcast
11:55 AM 53.6 °F - 51.8 °F 94% 29.87 in 2.0 mi North 20.7 mph - N/A   Overcast
12:15 PM 51.8 °F - 50.0 °F 94% 29.85 in 1.2 mi North 19.6 mph - N/A   Overcast
12:35 PM 51.8 °F - 50.0 °F 94% 29.84 in 9.0 mi North 19.6 mph - N/A   Overcast
12:55 PM 51.8 °F - 50.0 °F 94% 29.82 in 10.0 mi North 19.6 mph - N/A   Overcast
1:15 PM 51.8 °F - 50.0 °F 94% 29.81 in 10.0 mi North 21.9 mph - N/A   Overcast
1:35 PM 51.8 °F - 48.2 °F 88% 29.81 in 10.0 mi NNW 19.6 mph 26.5 mph N/A   Overcast
1:55 PM 50.0 °F - 48.2 °F 94% 29.82 in 10.0 mi NNW 19.6 mph - N/A   Overcast
2:15 PM 50.0 °F - 46.4 °F 87% 29.81 in 10.0 mi North 19.6 mph 25.3 mph N/A   Overcast
2:35 PM 50.0 °F - 46.4 °F 87% 29.81 in 10.0 mi North 19.6 mph 27.6 mph N/A   Overcast
2:55 PM 50.0 °F - 46.4 °F 87% 29.81 in 10.0 mi North 25.3 mph - N/A   Overcast
3:15 PM 48.2 °F - 46.4 °F 93% 29.81 in 10.0 mi North 23.0 mph - N/A   Overcast
3:35 PM 48.2 °F - 46.4 °F 93% 29.81 in 10.0 mi North 21.9 mph 28.8 mph N/A   Overcast
3:55 PM 48.2 °F - 46.4 °F 93% 29.82 in 10.0 mi North 23.0 mph - N/A   Overcast
4:15 PM 48.2 °F - 46.4 °F 93% 29.81 in 10.0 mi North 23.0 mph 29.9 mph N/A   Overcast
4:35 PM 50.0 °F - 46.4 °F 87% 29.81 in 10.0 mi North 23.0 mph 29.9 mph N/A   Overcast
4:55 PM 50.0 °F - 46.4 °F 87% 29.81 in 10.0 mi North 23.0 mph 29.9 mph N/A   Overcast
5:15 PM 50.0 °F - 46.4 °F 87% 29.82 in 10.0 mi North 24.2 mph 29.9 mph N/A   Overcast
5:35 PM 50.0 °F - 46.4 °F 87% 29.82 in 10.0 mi North 23.0 mph - N/A   Overcast
5:55 PM 50.0 °F - 46.4 °F 87% 29.83 in 10.0 mi North 25.3 mph - N/A   Overcast
6:15 PM 50.0 °F - 46.4 °F 87% 29.83 in 10.0 mi North 23.0 mph - N/A   Overcast
6:35 PM 50.0 °F - 44.6 °F 82% 29.84 in 10.0 mi North 24.2 mph 32.2 mph N/A   Overcast
6:55 PM 50.0 °F - 44.6 °F 82% 29.85 in 10.0 mi North 24.2 mph - N/A   Overcast
7:15 PM 50.0 °F - 44.6 °F 82% 29.86 in 10.0 mi North 23.0 mph 29.9 mph N/A   Overcast
7:35 PM 50.0 °F - 44.6 °F 82% 29.86 in 10.0 mi North 26.5 mph - N/A   Overcast
7:55 PM 50.0 °F - 44.6 °F 82% 29.87 in 10.0 mi NNE 24.2 mph - N/A   Overcast
8:15 PM 48.2 °F - 44.6 °F 87% 29.88 in 10.0 mi NNE 21.9 mph 27.6 mph N/A   Overcast
8:35 PM 50.0 °F - 44.6 °F 82% 29.88 in 10.0 mi North 19.6 mph 26.5 mph N/A   Overcast
8:55 PM 48.2 °F - 44.6 °F 87% 29.89 in 10.0 mi North 21.9 mph - N/A   Overcast
9:15 PM 48.2 °F - 44.6 °F 87% 29.89 in 10.0 mi North 21.9 mph 28.8 mph N/A   Overcast
9:35 PM 48.2 °F - 44.6 °F 87% 29.90 in 10.0 mi North 21.9 mph 27.6 mph N/A   Overcast
9:55 PM 48.2 °F - 44.6 °F 87% 29.90 in 10.0 mi North 20.7 mph 26.5 mph N/A   Overcast
10:15 PM 48.2 °F - 44.6 °F 87% 29.90 in 10.0 mi North 20.7 mph - N/A   Overcast
10:35 PM 48.2 °F - 44.6 °F 87% 29.90 in 10.0 mi North 21.9 mph - N/A   Overcast
10:55 PM 48.2 °F - 44.6 °F 87% 29.90 in 10.0 mi North 21.9 mph - N/A   Overcast
11:15 PM 48.2 °F - 42.8 °F 82% 29.90 in 10.0 mi North 18.4 mph 28.8 mph N/A   Overcast
11:35 PM 46.4 °F 39.2 °F 42.8 °F 87% 29.90 in 10.0 mi North 18.4 mph 24.2 mph N/A   Overcast
11:55 PM 48.2 °F - 42.8 °F 82% 29.90 in 10.0 mi North 20.7 mph - N/A   Overcast